Location: *
(43.9905°S, 176.4941°W)
Time: 18:24:34
(UTC+00:00)

Okean 1-7 Rocket - Pass Details

Date: 08 December 2019
Orbit: 616 x 650 km, 82.5° (Epoch: 19 January)

Event Time Altitude Azimuth Distance (km) Brightness Sun altitude
Rises 08:49:25 0° 182° (S) 2,997 8.0 -13.0°
Reaches altitude 10° 08:51:48 10° 175° (S) 2,083 6.9 -13.3°
Maximum altitude 08:56:11 41° 104° (ESE) 958 4.3 -13.7°
Enters shadow 08:58:43 22° 46° (NE) 1,433 4.8 -14.0°
